Regional Weather Roundup
Issued by NWS

Home | Current Version | Previous Version | Text Only | Print | Product List | Glossary Off
Versions: 1 2 3 4 5 6 7 8 9 10 11 12 13 14 15 16 17 18 19 20 21 22 23 24 25 26 27 28 29 30 31 32 33 34 35 36 37 38 39 40 41 42 43 44 45 46 47 48 49 50

000
ASUS43 KFSD 032110
RWRSD

WEATHER ROUNDUP FOR SOUTH DAKOTA
NATIONAL WEATHER SERVICE SIOUX FALLS SD
400 PM CDT MON AUG 03 2015

NOTE: "FAIR" INDICATES FEW OR NO CLOUDS BELOW 12,000 FEET WITH NO
SIGNIFICANT WEATHER AND/OR OBSTRUCTIONS TO VISIBILITY.


SDZ001>005-009-010-012>017-032200-
NORTHWEST AND NORTH CENTRAL SOUTH DAKOTA

CITY           SKY/WX    TMP DP  RH WIND       PRES   REMARKS
BUFFALO          N/A     85  51  31 E10       29.93F
FAITH            N/A     84  49  29 S8        29.99F
MOBRIDGE       SUNNY     84  53  34 NW8       29.95F HAZE
$$

SDZ012>016-024>037-041>051-057-063-072>074-032200-
SOUTHWEST AND SOUTH CENTRAL SOUTH DAKOTA

CITY           SKY/WX    TMP DP  RH WIND       PRES   REMARKS
RAPID CTY ARPT MOSUNNY   83  59  44 SE10G20   29.99
PIERRE         SUNNY     84  53  34 VRB5      29.95F
CUSTER         PTSUNNY   73  57  57 E12       30.13F
ELLSWORTH AFB  MOSUNNY   85  57  38 SE13G20   29.99F
PHILIP         SUNNY     84  58  40 SE9       29.97F
PINE RIDGE     PTSUNNY   88  61  40 E14G21    29.98F
WINNER         FAIR      87  56  34 E12       29.98F
$$

SDZ004>011-016>023-039-040-032200-
NORTHEAST SOUTH DAKOTA

CITY           SKY/WX    TMP DP  RH WIND       PRES   REMARKS
ABERDEEN       SUNNY     82  50  32 N6        29.96F
WATERTOWN      SUNNY     78  51  38 W10       29.97F
BROOKINGS      MOSUNNY   79  55  44 NW7       29.99S
SISSETON         N/A     79  52  38 N12G21    29.93F
$$

SDZ017-020-022-023-036>040-048>070-032200-
SOUTHEAST SOUTH DAKOTA

CITY           SKY/WX    TMP DP  RH WIND       PRES   REMARKS
SIOUX FALLS    MOSUNNY   81  58  45 W5        29.97F
HURON          SUNNY     82  52  35 W6        29.96F
CHAMBERLAIN    SUNNY     81  57  43 CALM      29.97F
MITCHELL       SUNNY     84  58  40 N7        29.96F
YANKTON        SUNNY     81  57  44 SE5       29.96S
$$

ABBREVIATIONS USED IN REMARKS
   TC - TEMPERATURE IN CELSIUS
  WCI - WIND CHILL INDEX
   HX - HEAT INDEX
  VSB - VISIBILITY



USA.gov is the U.S. government's official web portal to all federal, state and local government web resources and services.